Fountain Dale, PA

1:15 PM EDT on April 28, 2017 (GMT -0400)
Fountain Dale

Weather History for KRYT - December, 2013

Change the Weather History Date:

Thursday, December 5, 2013

  Actual Average (KHGR) Record (KHGR)
Temperature  
Mean Temperature 54 °F -  
Max Temperature 63 °F 43 °F 75 °F (2001)
Min Temperature 46 °F 30 °F 21 °F (2002)
Degree Days  
Heating Degree Days 10    
Growing Degree Days 4 (Base 50)    
Moisture  
Dew Point 49 °F    
Average Humidity 86    
Maximum Humidity 93    
Minimum Humidity 70    
Precipitation  
Precipitation 0.00 in - - ()
Sea Level Pressure  
Sea Level Pressure 29.98 in    
Wind  
Wind Speed 0 mph (WSW)    
Max Wind Speed 4 mph    
Max Gust Speed -    
Visibility 6 miles    
Events Rain    
Averages and records for this station are not official NWS values.
T = Trace of Precipitation, MM = Missing Value Source: NWS Daily Summary

Daily Weather History Graph

Daily Weather History Graph

Search for Another Location

Airport or City:

Trip Planner

Search our weather history database for the weather conditions in past years. The results will help you decide how hot, cold, wet, or windy it might be!

Date:

Astronomy

Dec. 05, 2013 Rise Set
Actual Time 7:15 AM EST 4:45 PM EST
Civil Twilight 6:45 AM EST 5:15 PM EST
Nautical Twilight 6:11 AM EST 5:48 PM EST
Astronomical Twilight 5:39 AM EST 6:21 PM EST
Moon 9:34 AM EST (12/5) 8:03 PM EST (12/5)
Length of Visible Light 10h 29m
Length of Day
9h 29m
Waxing Crescent, 10% of the Moon is Illuminated
Dec 5
Waxing Crescent
Dec 9
First Quarter
Dec 17
Full
Dec 25
Last Quarter
Jan 1
New

Hourly Weather History & Observations

Time (EST) Temp. Dew Point Humidity Pressure Visibility Wind Dir Wind Speed Gust Speed Precip Events Conditions
12:53 AM 46.9 °F 43.0 °F 86% 30.06 in 6.0 mi Calm Calm - N/A   Overcast
1:39 AM 46.4 °F 42.8 °F 87% 30.03 in 6.0 mi Calm Calm - N/A   Overcast
1:53 AM 48.0 °F 43.0 °F 83% 30.04 in 6.0 mi Calm Calm - N/A   Haze
2:32 AM 48.2 °F 42.8 °F 82% 30.03 in 6.0 mi Calm Calm - N/A   Haze
2:53 AM 46.9 °F 43.0 °F 86% 30.04 in 6.0 mi Calm Calm - N/A   Overcast
3:53 AM 46.9 °F 43.0 °F 86% 30.03 in 5.0 mi Calm Calm - N/A   Overcast
4:53 AM 48.0 °F 44.1 °F 86% 30.02 in 5.0 mi Calm Calm - N/A   Overcast
5:10 AM 46.4 °F 44.6 °F 93% 30.00 in 5.0 mi Calm Calm - N/A   Overcast
5:53 AM 46.9 °F 45.0 °F 93% 30.01 in 3.0 mi Calm Calm - N/A   Overcast
6:15 AM 48.2 °F 46.4 °F 93% 30.01 in 1.8 mi Calm Calm - N/A   Overcast
6:36 AM 48.2 °F 46.4 °F 93% 30.00 in 2.0 mi Calm Calm - N/A   Overcast
6:57 AM 48.2 °F 46.4 °F 93% 30.00 in 2.0 mi Calm Calm - N/A   Overcast
7:32 AM 48.2 °F 46.4 °F 93% 30.01 in 2.0 mi Calm Calm - N/A   Overcast
7:53 AM 48.9 °F 46.9 °F 93% 30.02 in 2.0 mi Calm Calm - N/A   Overcast
8:53 AM 51.1 °F 48.9 °F 92% 30.02 in 2.5 mi Calm Calm - N/A   Overcast
9:03 AM 51.8 °F 48.2 °F 88% 30.02 in 3.0 mi Calm Calm - N/A   Overcast
9:53 AM 53.1 °F 48.9 °F 86% 30.03 in 4.0 mi Calm Calm - N/A   Mostly Cloudy
11:40 AM 57.2 °F 51.8 °F 82% 29.96 in 7.0 mi Calm Calm - N/A   Partly Cloudy
12:53 PM 60.1 °F 52.0 °F 75% 29.94 in 9.0 mi WSW 3.5 mph - N/A   Clear
1:53 PM 61.0 °F 53.1 °F 75% 29.92 in 8.0 mi WSW 3.5 mph - N/A   Clear
2:53 PM 63.0 °F 53.1 °F 70% 29.92 in 10.0 mi Calm Calm - N/A   Clear
3:53 PM 61.0 °F 53.1 °F 75% 29.94 in 10.0 mi Calm Calm - N/A   Partly Cloudy
5:51 PM 57.2 °F 51.8 °F 82% 29.94 in 10.0 mi Calm Calm - N/A   Mostly Cloudy
5:53 PM 57.0 °F 53.1 °F 87% 29.95 in 10.0 mi Calm Calm - N/A   Mostly Cloudy
6:17 PM 57.2 °F 53.6 °F 88% 29.94 in 10.0 mi Calm Calm - N/A   Overcast
6:53 PM 57.0 °F 53.1 °F 87% 29.95 in 10.0 mi Calm Calm - N/A   Mostly Cloudy
7:35 PM 57.2 °F 53.6 °F 88% 29.94 in 10.0 mi Calm Calm - N/A   Overcast
7:53 PM 57.9 °F 54.0 °F 87% 29.94 in 10.0 mi Calm Calm - 0.00 in Rain Light Rain
8:53 PM 57.0 °F 54.0 °F 89% 29.93 in 8.0 mi Calm Calm - 0.00 in   Mostly Cloudy
9:53 PM 57.9 °F 55.0 °F 90% 29.91 in 10.0 mi Calm Calm - N/A   Overcast
11:53 PM 57.9 °F 55.0 °F 90% 29.90 in 10.0 mi Calm Calm - 0.00 in Rain Light Rain